RH
40 49 53 40 48 42 43 48 50 43 34 39 38 39 32 43 67 82 98 93 89 98 79 88 91 95 95 95 94 95 96 94 89 92 92 96 93 94 96 86 84 85 86 85
50 48 35 38 41 42 43 47 47 40 31 36 38 37 32 47 58 64 83 98 97 98 93 90 93 95 94 94 92 92 95 94 80 86 85 92 89 86 94 92 90 87 92 89
38 37 34 38 44 44 45 45 47 43 35 39 44 44 35 44 65 76 90 94 93 96 96 80 94 96 94 94 92 88 89 92 84 81 84 84 85 89 85 92 92 89 88 95
38 28 29 41 41 40 49 39 38 40 50 57 43 60 43 37 53 76 84 95 95 93 94 86 78 94 94 92 85 84 85 89 83 77 77 81 76 73 57 81 83 88 90 90
41 33 34 33 42 39 42 38 44 46 53 62 50 60 48 61 48 50 69 85 93 91 92 92 79 79 87 86 86 84 86 82 77 76 75 74 76 70 82 84 84 89 89 90
36 31 29 29 26 37 38 45 46 54 58 72 52 53 57 47 46 46 56 73 81 94 94 91 87 78 79 79 88 93 88 89 85 84 84 79 74 80 83 87 93 96 95 95
23 26 32 30 33 38 41 48 66 69 73 72 54 74 54 40 37 41 40 60 71 80 94 95 97 96 88 87 84 91 89 91 87 87 84 81 80 80 76 75 79 95 95 95
23 24 23 30 31 37 42 46 71 65 71 60 72 79 54 41 38 39 37 47 65 76 83 91 94 95 94 90 87 88 89 92 89 87 84 82 82 81 82 80 80 83 82 86
53 32 28 24 24 25 38 52 40 53 76 82 68 62 42 39 32 36 34 57 66 73 79 81 87 89 92 95 95 93 94 91 88 88 86 84 85 83 78 88 93 90 93 90
65 64 36 31 29 28 28 32 48 68 75 80 70 72 52 39 35 33 34 59 62 72 77 74 78 82 84 88 90 94 90 88 83 84 84 81 83 84 82 88 92 90 92 94
79 71 52 38 39 38 42 39 50 47 64 64 69 64 51 38 35 39 31 40 61 67 74 72 68 70 76 84 89 91 90 85 82 78 81 81 82 82 84 84 84 88 92 91
88 96 80 49 32 32 36 37 35 49 58 76 68 47 38 39 39 38 31 29 46 63 66 73 73 73 73 82 86 87 87 84 80 73 71 76 80 82 85 86 83 85 89 89
65 96 91 62 43 39 40 37 38 53 62 50 69 57 38 40 37 35 37 32 35 55 66 66 75 73 71 75 79 81 82 82 77 77 75 74 80 83 86 86 86 88 91 91
71 82 84 93 86 73 69 39 34 45 71 55 53 53 43 36 37 33 34 34 33 32 52 66 69 72 70 69 73 76 77 74 76 76 76 78 80 82 84 86 88 92 94 92
78 91 70 76 74 83 88 52 34 38 45 55 51 49 41 38 36 34 33 34 32 28 33 54 66 65 68 71 70 72 76 78 74 74 76 74 76 83 87 88 92 96 95 94
92 90 86 89 70 74 76 46 41 46 46 51 49 49 40 36 40 37 33 31 31 32 29 30 44 59 66 66 70 72 75 78 82 81 78 78 84 86 92 92 93 95 96 97
90 99 96 89 78 88 77 49 37 38 48 46 52 44 41 36 38 38 33 35 31 30 30 33 34 44 56 69 76 82 86 89 90 87 90 97 96 96 98 99 99 99 98 99
75 98 100 98 91 97 63 42 34 41 38 42 41 38 38 34 30 33 34 33 33 31 34 35 53 87 98 95 96 98 96 99 97 99 99 99 99 99 99 99 99 99 99 99
62 79 98 98 97 87 74 53 51 52 44 43 41 41 36 34 37 32 34 32 30 37 53 86 97 93 91 93 95 97 98 98 98 99 99 99 99 99 99 99 99 99 98 98
67 72 92 99 99 88 72 61 56 49 73 44 44 46 41 36 47 37 37 53 72 87 94 98 94 90 91 98 95 97 98 98 98 98 98 98 97 98 98 98 98 97 95 95
96 92 95 92 96 90 69 67 65 81 71 52 55 44 43 36 37 36 65 90 96 98 97 95 91 93 97 93 91 97 96 97 94 90 89 90 89 92 92 90 89 90 92 92
93 98 99 99 98 93 58 76 95 66 71 60 56 55 52 47 50 59 85 97 98 97 98 95 96 97 97 92 91 95 95 87 80 76 78 79 81 80 80 84 86 86 90 94
86 86 88 91 85 63 57 52 55 66 67 66 58 57 61 49 48 75 96 98 98 97 96 93 94 95 92 90 87 90 75 70 72 73 77 76 76 78 78 83 86 90 87 92
64 65 80 82 58 58 57 56 58 57 60 66 53 62 61 62 73 92 98 97 96 93 87 80 84 83 78 70 66 65 67 67 68 74 77 77 80 82 82 84 87 92 93 93
67 70 71 75 59 53 49 50 49 55 58 59 61 58 61 69 82 90 95 82 75 72 69 68 71 70 67 63 63 62 66 69 75 76 78 85 86 87 89 92 94 92 97 98
63 59 76 74 56 61 56 54 57 62 64 72 65 56 68 75 84 74 72 69 71 72 71 74 75 78 78 78 80 78 75 76 81 88 92 94 93 92 91 91 95 96 97 96
Wind_Speed
6 5 10 19 6 4 4 4 4 7 6 3 10 9 15 7 7 8 10 11 10 6 6 7 7 6 9 8 9 7 7 10 10 9 10 5 5 5 3 7 10 11 8 8
1 14 15 7 10 8 5 6 9 10 14 7 9 15 12 5 8 8 9 9 10 7 8 8 8 7 8 9 9 9 8 8 10 8 6 3 3 3 3 3 5 5 5 8
14 6 13 11 6 8 7 13 6 9 8 5 3 7 8 3 4 4 4 9 9 12 11 10 9 8 7 8 10 10 10 9 8 9 7 5 5 3 2 3 4 2 5 6
9 11 12 7 11 11 11 9 9 7 3 5 3 6 7 4 7 5 7 9 12 12 9 9 12 10 10 8 8 10 10 9 8 10 8 9 9 10 7 4 4 4 6 7
8 5 12 16 7 8 12 8 9 6 5 2 4 2 8 1 6 10 10 12 10 13 15 13 12 12 11 10 9 9 10 10 10 11 11 9 8 6 3 3 5 6 7 6
4 1 7 8 11 12 2 3 3 2 2 6 7 7 6 4 7 6 5 10 11 13 12 12 11 11 12 11 10 9 10 10 9 9 9 10 11 7 6 5 5 4 3 4
5 13 3 2 3 6 5 5 2 3 2 6 4 4 9 7 9 9 10 10 13 13 15 13 15 14 14 14 15 12 13 14 12 12 11 11 10 10 11 10 8 6 5 5
10 8 16 5 10 7 10 10 7 7 4 4 3 7 8 9 7 8 9 6 9 11 12 15 16 15 16 18 17 16 16 13 13 12 12 9 10 7 7 8 7 7 8 7
3 6 3 9 12 13 6 6 7 1 2 1 5 6 8 7 8 5 7 7 10 13 14 16 15 15 16 15 17 18 16 15 13 13 11 10 9 9 8 7 5 7 6 5
5 5 6 6 5 9 10 9 3 0 6 6 4 4 6 6 9 7 7 8 8 8 10 11 14 17 16 14 15 15 16 16 14 14 12 10 11 10 10 7 9 10 8 7
6 0 7 6 4 8 4 9 3 4 6 6 2 7 9 11 9 7 9 8 8 10 12 13 14 12 12 12 14 15 15 15 13 13 13 14 12 12 11 11 12 11 8 9
3 4 4 10 11 5 2 8 13 10 6 2 3 10 4 9 6 8 8 8 7 9 9 9 6 8 11 13 14 16 15 16 16 15 15 14 12 12 14 14 14 11 13 11
2 2 5 7 4 2 4 5 6 3 3 15 7 6 3 6 7 5 7 8 7 8 8 8 9 11 11 12 13 14 15 18 15 14 14 13 15 13 15 14 13 13 13 14
4 6 7 6 13 14 14 8 12 10 6 8 14 4 5 7 8 8 8 9 6 6 7 6 7 11 11 12 13 13 14 14 14 15 15 14 15 16 14 14 14 13 12 13
5 5 8 12 16 17 28 23 15 18 12 11 6 12 11 11 10 12 10 4 7 7 7 9 9 10 11 12 12 13 14 14 13 14 15 20 13 10 8 11 10 10 12 13
3 5 4 12 15 18 23 22 14 9 5 3 5 7 7 9 4 5 9 9 8 9 10 10 11 9 11 15 15 13 13 13 12 14 16 12 9 8 9 10 11 11 12 10
4 5 2 5 5 16 9 24 20 10 6 8 8 9 4 6 7 10 13 9 11 10 10 10 12 10 6 6 5 6 5 6 8 10 7 6 7 8 8 6 7 9 10 8
9 4 2 4 4 6 8 6 16 14 10 9 6 6 8 8 11 10 9 9 10 11 10 8 6 6 6 5 7 8 7 7 6 6 6 6 6 5 5 6 6 3 2 2
16 10 3 2 3 7 14 7 3 8 15 11 13 9 9 6 2 9 7 9 9 5 3 6 7 9 8 9 8 10 9 8 9 7 6 5 4 4 5 5 5 4 6 7
14 15 6 2 4 6 7 7 15 2 7 6 8 9 9 7 1 9 4 1 4 8 8 12 11 10 11 8 8 11 10 9 8 7 7 6 6 7 7 6 6 6 8 8
7 9 16 12 6 8 10 4 13 4 7 2 3 8 6 5 6 2 4 6 8 7 12 13 12 12 9 9 11 12 11 10 9 10 10 10 9 10 9 9 8 8 10 10
4 2 6 6 5 6 7 4 2 5 8 4 6 6 3 2 3 4 6 7 9 12 11 12 14 12 9 9 11 12 12 10 12 13 13 12 11 9 8 11 9 10 10 10
4 6 3 7 6 7 3 5 6 7 4 6 6 6 4 8 6 0 5 10 9 11 12 10 13 13 11 11 11 13 10 11 12 13 12 11 12 11 10 9 9 8 8 7
6 3 4 1 8 14 8 5 5 7 8 2 6 4 6 7 5 7 11 10 11 12 14 10 13 16 14 12 11 11 9 11 13 14 13 12 12 13 12 10 9 8 7 7
7 1 1 7 14 13 6 1 5 6 6 3 5 4 9 10 9 11 9 13 12 12 15 15 11 14 14 12 13 12 11 13 15 14 12 12 11 12 12 12 8 8 10 8
5 7 4 6 8 5 8 6 5 4 6 9 9 5 6 7 12 16 11 11 14 12 14 18 12 14 13 15 15 14 12 13 14 14 10 9 8 8 8 8 9 18 16 16
Wind_Direction
185 155 198 214 190 171 158 180 232 259 256 339 280 275 279 246 238 221 196 189 197 200 179 171 164 143 133 130 128 124 134 143 141 137 141 138 144 131 132 158 154 127 152 157
148 226 219 166 190 200 195 244 263 299 280 173 287 298 294 189 240 229 181 178 188 168 175 176 168 157 157 146 149 147 134 148 143 137 122 93 111 91 108 78 91 131 134 177
211 220 184 177 171 192 215 223 225 221 314 248 267 299 289 258 250 273 205 165 183 175 175 180 177 173 161 163 161 159 154 150 146 134 112 115 92 74 168 91 75 167 182 201
234 218 233 215 215 192 227 197 228 252 75 255 94 278 293 261 272 264 252 197 176 176 172 177 186 178 175 175 173 167 163 161 151 151 142 165 172 168 180 157 152 200 185 206
224 183 207 223 211 157 242 155 201 226 208 234 251 282 262 344 285 252 237 231 181 181 174 179 192 188 173 176 179 176 170 175 172 171 179 170 170 183 154 159 177 202 194 189
232 240 172 212 220 175 118 195 216 143 143 245 205 180 268 211 222 286 246 218 206 173 177 176 180 193 193 182 169 180 180 191 186 185 176 178 175 171 182 196 202 210 222 202
281 246 247 206 153 184 159 108 300 327 219 232 199 158 249 265 228 219 256 230 215 179 171 175 177 182 191 194 195 183 186 196 195 198 193 189 184 188 194 201 211 195 212 226
200 239 206 183 203 174 204 175 164 200 215 258 129 229 244 238 269 237 259 246 181 195 181 177 182 187 187 192 197 195 194 198 194 200 201 199 198 200 204 204 218 221 222 219
327 264 280 191 195 188 182 190 191 179 115 337 230 290 310 261 300 295 250 191 191 199 192 184 178 186 190 194 195 194 192 197 192 201 201 205 201 207 208 210 209 226 224 218
340 290 291 273 187 240 206 162 172 347 184 231 263 256 225 306 291 302 278 228 208 200 191 192 186 190 192 191 191 192 199 196 190 191 197 205 209 208 214 206 218 224 230 217
16 257 291 342 208 177 161 218 214 173 163 205 238 254 209 232 249 270 274 248 224 201 194 201 205 196 183 184 186 193 193 199 198 195 193 203 207 208 210 220 226 225 226 225
69 301 274 246 252 231 258 216 211 223 219 214 207 238 231 219 254 223 247 255 232 209 192 196 187 176 186 187 189 192 190 199 201 199 205 206 205 204 209 217 224 222 230 231
45 352 314 329 272 25 209 195 212 185 114 231 220 259 240 226 219 215 265 260 205 218 202 173 179 194 195 197 195 195 195 202 199 201 205 204 210 207 218 222 225 226 225 228
192 197 211 281 302 317 296 234 214 202 212 218 237 210 278 245 242 236 228 253 266 216 214 188 181 198 200 202 205 205 210 207 198 200 208 213 214 213 216 222 223 220 213 219
203 244 233 253 273 289 285 266 233 211 219 206 194 209 224 225 219 236 224 215 220 253 194 200 196 202 196 200 206 208 212 207 200 207 212 223 220 220 215 221 220 210 220 222
220 260 192 283 278 278 264 260 245 224 184 223 254 255 231 253 234 277 241 240 226 216 227 211 206 193 195 200 206 205 208 204 190 204 218 222 216 211 203 205 210 211 223 218
279 284 238 269 340 317 265 225 234 228 198 167 210 223 251 268 217 233 242 234 226 235 231 212 211 205 188 201 192 185 159 146 173 194 190 166 176 199 203 191 184 201 206 197
244 263 273 260 348 253 287 231 211 214 227 209 199 219 238 230 263 257 232 221 220 227 228 218 142 109 95 100 97 105 110 96 114 110 118 122 132 149 162 171 189 168 132 163
207 216 261 261 254 306 295 293 177 176 248 223 223 208 239 275 290 277 236 219 233 211 105 110 89 96 108 104 107 103 96 99 100 104 112 123 136 127 110 92 83 73 86 76
200 199 206 195 237 243 218 295 329 351 279 243 197 219 221 147 219 272 4 139 148 104 116 108 102 113 107 97 101 97 94 92 88 87 84 81 86 93 91 91 85 83 83 80
192 199 212 221 232 271 263 14 329 218 242 312 4 244 183 199 191 271 115 74 63 52 98 104 109 101 83 87 93 89 85 79 87 86 81 73 72 76 78 76 66 74 78 78
227 230 189 201 194 262 219 108 231 246 300 276 319 34 341 232 89 345 111 96 106 105 89 92 94 87 77 80 88 84 82 88 85 81 77 72 68 70 75 81 76 78 85 85
269 208 187 198 220 257 193 229 225 237 263 311 360 338 355 82 322 256 95 93 81 87 91 87 89 81 66 70 87 93 94 97 93 84 77 73 72 65 62 71 78 82 83 87
247 184 234 351 264 255 291 251 263 267 284 312 305 339 47 15 118 101 92 80 83 81 74 66 83 80 68 65 74 85 95 93 86 81 71 64 65 65 58 59 56 62 66 76
214 194 246 274 278 284 294 280 301 289 235 277 283 27 31 62 27 60 76 80 79 68 67 67 54 75 69 65 62 59 65 82 80 77 73 72 72 71 71 60 52 60 47 51
215 240 183 246 301 293 279 285 291 296 1 31 19 283 98 111 117 93 70 70 72 78 79 74 59 64 65 65 60 58 66 78 86 83 76 71 73 72 70 75 73 62 67 67